SCP
0 0 0 0 0 0 0 0 0 0 0 0 0 0 0 0 0 0 0 0 0 0 -0 -0 -0 -0 -0 -0 -0 0 0 0 0 0 0 0 0 0 0 0 0 0 0
0 0 0 0 0 0 0 0 0 0 0 0 0 0 0 0 0 0 0 0 0 0 0 0 -0 -0 -0 0 0 0 0 0 0 0 0 0 0 0 0 0 0 0 0
0 0 0 0 0 0 0 0 0 0 0 0 0 0 0 0 0 0 0 0 0 0 0 0 0 0 0 0 0 0 0 0 0 0 0 0 0 0 0 0 0 0 0
0 0 0 0 0 0 0 0 0 0 0 0 0 0 0 0 0 0 0 0 0 0 0 0 0 0 0 0 0 0 0 0 0 0 0 0 0 0 0 0 0 0 0
0 0 0 0 0 0 0 0 0 0 0 0 0 0 0 0 0 0 0 0 0 0 0 0 0 0 0 0 0 0 0 0 0 0 0 0 0 0 0 0 0 0 0
0 0 0 0 0 0 0 0 0 0 0 0 0 0 0 0 0 0 0 0 0 0 0 0 0 0 0 0 0 0 0 0 0 0 0 0 0 0 0 0 0 0 0
0 0 0 0 0 0 0 0 0 0 0 0 0 0 0 0 0 0 0 0 0 0 0 0 0 0 0 0 0 0 0 -0 -0 -0 0 0 0 0 0 0 0 0 0
0 0 0 0 0 0 0 0 0 0 0 0 0 0 0 0 0 0 0 0 0 0 0 0 0 0 0 0 0 0 0 -0 -0 -0 -0 0 0 0 0 0 0 0 0
0 0 0 0 0 0 0 0 0 0 0 0 0 0 0 0 0 0 0 0 0 0 0 0 0 0 0 0 0 0 0 -0 -0 -0 -0 -0 0 0 0 0 0 0 0
0 0 1 1 1 0 0 0 0 0 0 0 0 0 0 0 0 0 0 0 0 0 0 0 0 0 0 0 0 0 0 0 -0 -0 -0 -0 0 0 0 1 1 0 0
0 0 1 1 1 1 0 0 0 0 0 0 0 0 0 0 0 0 0 0 0 0 0 0 0 0 0 0 0 0 0 0 0 0 -0 -0 -0 0 0 1 1 1 1
1 1 1 1 1 1 1 0 0 0 0 0 0 0 0 0 0 0 0 0 0 0 0 0 0 0 0 0 0 0 0 0 0 0 0 0 -0 0 0 1 1 1 1
1 1 1 1 1 1 1 1 0 0 0 0 0 0 0 0 0 0 0 0 0 0 0 0 1 1 1 1 1 1 1 0 0 0 0 0 0 0 0 1 1 1 1
1 1 1 1 1 1 1 1 1 0 0 0 0 0 0 0 0 0 0 0 0 0 0 1 1 1 1 1 1 1 1 1 1 1 0 0 0 0 0 1 1 1 1
2 1 1 1 1 1 1 1 1 1 0 0 0 0 1 1 0 0 0 0 0 0 0 1 1 1 1 1 1 1 0 1 1 1 0 0 0 0 0 1 1 1 1
2 1 1 1 1 1 1 1 1 1 1 1 1 1 1 1 1 0 0 0 0 0 0 0 0 0 0 0 0 0 0 0 1 1 1 0 0 0 1 1 1 1 1
1 1 1 1 1 1 1 1 1 1 1 1 1 1 1 1 1 1 0 0 0 0 0 0 0 0 0 0 0 0 0 0 0 0 0 1 1 1 1 1 1 1 1
1 1 1 1 1 1 1 1 1 1 1 1 1 1 1 1 1 0 0 0 0 0 0 0 0 0 0 0 0 0 0 0 0 0 0 0 1 1 1 1 1 1 1
1 1 1 1 1 1 1 1 1 1 1 1 1 1 1 1 0 0 0 0 0 0 0 0 0 0 0 0 0 0 0 0 0 0 0 0 0 1 1 1 1 1 1
1 1 1 1 1 1 1 1 1 1 1 1 1 1 1 0 0 0 0 0 0 0 0 0 0 0 0 0 0 0 0 0 0 0 0 0 0 0 1 1 1 1 1
0 0 0 0 1 1 1 1 1 1 0 0 0 0 0 0 0 0 0 0 0 0 0 0 0 0 0 0 0 0 0 0 0 0 0 0 0 0 0 1 1 1 1
0 0 0 0 0 0 0 0 0 0 0 0 0 0 0 0 0 0 0 0 0 0 0 0 0 0 0 0 0 0 0 0 0 0 0 0 0 0 0 0 1 1 1
0 0 0 0 0 0 0 0 0 0 0 0 0 0 0 0 0 0 0 0 0 0 0 0 0 0 0 0 0 0 0 0 0 0 0 0 0 0 0 0 0 0 1
0 0 0 0 0 0 0 0 0 0 0 0 0 0 0 0 0 0 0 0 0 0 0 0 0 0 0 0 0 0 0 0 0 0 0 0 0 0 0 0 0 0 0
0 0 0 0 0 0 0 0 0 0 0 0 0 0 0 0 0 0 0 0 0 0 0 0 0 0 0 0 0 0 0 0 0 0 0 0 0 0 0 0 0 0 0
0 0 0 0 0 0 0 0 0 0 0 0 0 -0 0 0 0 0 0 0 0 0 0 0 0 0 0 0 0 0 0 0 0 0 0 0 0 0 0 0 0 0 0
Wind_Speed
10 12 18 18 18 18 18 17 17 17 16 16 16 16 16 16 16 16 16 16 15 14 13 13 12 12 12 11 12 12 12 12 12 13 13 13 12 11 11 14 12 10 14
15 14 19 18 19 19 18 18 17 17 16 16 16 16 15 15 15 15 15 15 14 14 13 12 12 11 11 11 10 10 10 10 10 11 11 11 11 11 11 13 12 8 13
18 14 17 19 19 19 18 18 17 17 17 16 16 16 15 15 14 14 14 14 13 13 12 12 11 10 10 9 9 9 9 8 8 9 9 4 6 10 12 14 13 12 12
18 13 15 20 19 19 19 18 17 17 17 16 16 15 15 15 14 14 13 13 12 12 11 11 11 10 9 8 8 8 8 7 6 7 4 4 4 9 12 13 13 12 12
14 12 16 22 21 20 19 18 18 17 17 16 16 15 14 14 14 13 13 12 12 11 11 10 10 9 9 8 7 6 6 6 6 5 3 4 4 9 12 13 13 12 12
13 11 15 22 21 20 19 18 18 17 17 16 15 15 14 14 13 13 12 12 11 11 10 10 9 9 8 8 7 6 6 6 5 2 3 4 5 12 14 14 14 13 12
12 10 14 21 21 20 19 18 18 17 16 16 15 14 14 13 12 12 11 11 11 10 10 10 10 9 9 9 8 8 7 7 4 3 3 4 7 14 16 16 15 15 13
15 12 12 20 20 20 19 18 17 17 16 15 15 14 13 13 12 12 11 11 11 11 10 10 10 10 10 10 10 9 9 9 7 4 3 5 10 15 17 17 16 16 15
14 13 10 12 15 19 19 18 17 17 16 15 15 14 14 13 13 12 12 12 12 12 12 12 12 12 12 11 11 11 11 11 6 4 6 4 10 17 19 18 17 17 17
12 12 11 9 9 9 11 17 17 17 17 16 16 15 15 14 14 13 11 12 13 14 14 14 14 14 13 13 13 13 13 11 6 6 5 5 9 16 19 19 18 18 18
13 11 11 10 9 8 8 13 15 17 17 16 14 17 14 7 7 8 12 14 15 16 16 16 15 15 14 13 15 14 12 5 5 5 5 9 11 15 19 19 19 19 18
15 13 11 11 11 9 10 8 6 8 8 9 7 9 7 5 6 9 10 16 18 18 17 17 17 15 12 6 10 13 6 7 6 6 7 13 14 15 18 19 19 19 19
15 14 13 12 11 11 8 7 5 5 5 7 8 8 6 5 5 6 4 7 10 13 9 10 10 7 7 6 5 5 6 6 5 6 7 13 13 15 17 19 19 19 19
12 12 12 12 11 11 8 7 7 6 6 7 8 8 6 5 5 5 4 4 4 4 5 5 4 6 7 8 8 7 8 6 6 5 7 15 14 14 16 18 19 19 18
9 6 7 6 9 10 8 7 8 7 7 7 6 7 8 6 6 5 3 3 3 3 3 4 4 5 6 7 7 7 8 8 8 7 6 13 14 14 16 17 18 20 20
8 6 5 3 1 5 6 7 6 6 6 6 6 8 10 7 5 4 4 3 3 3 3 4 4 4 4 4 5 6 6 6 6 7 7 9 14 14 15 18 20 20 20
9 8 6 3 1 2 4 5 4 5 5 5 5 7 8 7 6 5 3 3 3 3 3 2 3 2 3 3 4 4 4 5 5 6 7 6 7 12 17 19 19 19 20
11 9 8 4 2 3 3 2 2 3 4 4 4 5 7 7 7 5 3 3 2 1 1 1 1 1 2 2 3 3 4 4 5 6 6 6 6 6 10 17 19 20 21
10 9 9 7 6 4 4 3 3 2 2 2 3 4 6 7 7 5 3 2 2 1 1 1 0 1 1 2 3 4 4 4 5 6 6 7 7 7 7 11 19 20 22
7 7 6 3 2 3 3 3 3 2 1 1 2 4 6 6 6 5 3 3 3 2 1 0 1 1 1 2 3 4 4 5 4 5 7 6 6 8 8 9 8 12 20
5 6 5 1 1 0 1 2 2 2 2 2 2 4 6 6 7 6 4 3 3 2 2 1 1 1 1 1 1 4 4 4 4 4 4 4 4 5 6 7 7 7 6
4 4 3 0 1 1 2 2 2 2 3 2 2 3 5 6 7 6 6 4 4 3 1 0 1 1 1 0 1 1 4 5 4 2 2 2 3 3 4 5 6 7 6
8 7 4 4 4 3 2 2 1 1 1 1 1 2 3 5 6 6 7 5 5 4 3 2 2 3 2 1 1 2 1 3 4 3 2 2 2 2 3 3 3 4 5
8 7 7 6 5 5 4 2 1 1 1 2 2 2 2 3 4 6 7 6 6 4 4 4 3 3 3 2 1 2 3 3 2 4 4 2 3 3 3 3 2 1 2
6 6 6 7 7 6 5 4 3 3 2 2 2 2 2 2 4 5 5 6 6 5 5 5 4 4 3 3 3 2 2 2 3 3 4 4 4 2 2 2 1 1 1
5 5 5 6 6 6 6 6 6 5 5 5 4 4 3 3 3 3 4 5 6 5 6 6 5 5 4 4 4 3 3 3 3 3 4 4 4 3 3 2 1 1 1
Wind_Direction
158 162 159 158 155 150 144 140 136 134 132 130 127 124 122 122 123 126 126 127 126 126 124 121 120 120 117 115 115 116 118 119 121 122 122 121 118 116 122 125 117 114 116
156 159 157 157 156 152 148 145 143 142 140 138 135 132 130 129 128 129 131 132 131 129 128 126 126 126 126 124 123 122 122 123 125 126 126 125 121 115 122 133 124 127 123
150 156 155 156 156 154 151 150 149 148 147 146 143 141 139 137 137 136 137 138 138 137 136 135 136 136 136 136 135 134 132 131 132 133 130 123 127 123 121 129 132 131 128
150 153 154 155 156 156 155 155 155 154 153 151 149 148 147 146 145 145 145 145 146 146 146 147 148 149 150 151 151 150 149 150 153 157 152 163 166 146 138 136 139 139 138
148 151 158 157 158 159 159 160 160 158 157 156 155 155 154 154 153 153 153 153 154 155 157 158 159 161 164 167 171 174 175 177 184 191 195 193 190 170 160 151 149 149 149
149 153 160 159 161 162 163 164 164 163 162 161 161 161 162 161 161 161 162 163 164 166 168 170 172 174 179 184 192 202 212 217 216 219 237 218 196 189 178 166 161 161 161
151 156 163 162 164 166 167 168 168 167 167 167 167 168 169 169 170 171 173 175 176 179 182 185 188 190 194 201 209 219 232 244 241 225 233 221 197 192 187 179 172 171 173
155 158 164 167 168 169 171 172 172 173 173 173 174 175 177 179 181 183 186 189 192 194 197 201 203 205 208 213 218 225 234 246 258 250 223 209 206 201 195 188 181 180 181
158 162 167 169 172 174 175 176 177 178 179 180 181 183 185 188 192 196 198 202 206 209 211 213 215 217 219 221 224 230 236 243 250 256 262 237 216 208 203 195 189 188 189
162 168 170 168 169 172 177 182 183 184 186 188 189 191 194 198 201 206 209 215 217 219 221 222 224 225 227 228 231 235 240 247 245 247 251 251 239 218 211 202 196 195 195
170 175 173 171 170 169 176 189 189 190 193 194 196 199 201 206 209 214 221 224 227 228 228 229 230 232 233 236 238 240 243 237 235 244 245 249 244 227 220 211 204 202 201
177 179 179 177 175 174 185 188 191 195 197 198 199 203 201 200 211 219 229 233 234 234 235 233 233 234 237 237 241 243 238 236 238 244 243 244 245 237 229 222 214 209 206
178 180 181 182 180 181 191 185 192 200 199 205 206 207 204 203 216 228 228 242 239 236 235 237 235 228 228 228 228 226 233 236 239 243 247 248 248 247 239 231 225 219 212
171 183 182 183 183 190 195 191 193 200 202 207 211 207 201 206 216 221 219 227 221 220 218 225 224 225 230 232 230 230 235 236 233 236 245 250 251 252 249 239 230 224 220
151 161 169 186 192 194 199 199 197 203 207 208 205 205 202 204 211 211 211 215 214 207 211 222 228 231 234 236 237 236 237 235 230 228 240 248 250 250 250 243 234 227 221
109 95 94 86 231 229 209 201 198 198 199 196 199 201 198 198 198 199 207 213 217 208 209 212 220 226 230 231 241 244 242 238 230 227 228 240 243 240 241 236 229 228 225
76 69 63 68 332 297 252 209 201 188 180 186 193 190 185 182 184 187 193 207 223 215 211 216 233 232 240 242 250 256 252 246 237 230 228 225 229 234 234 232 230 231 230
72 56 35 19 358 319 300 254 224 194 172 184 184 183 174 175 177 175 180 199 211 191 190 221 252 279 279 277 273 269 265 260 255 246 237 232 226 231 234 234 235 234 235
76 58 37 14 3 333 316 305 272 234 194 182 172 179 173 172 170 164 172 188 173 146 165 228 145 195 258 290 283 272 269 265 259 260 251 243 234 227 226 233 236 235 238
81 88 63 22 339 350 323 311 303 316 308 235 186 185 176 169 163 158 161 163 144 130 124 147 218 218 221 256 291 295 278 268 258 253 255 254 243 236 232 233 234 239 239
73 82 82 65 291 360 324 308 303 294 280 263 225 195 180 169 162 160 158 156 141 146 176 200 212 275 285 285 341 315 298 280 269 262 264 269 265 256 244 233 229 230 235
67 83 102 62 293 238 245 252 237 226 256 250 240 205 187 173 168 165 160 161 160 158 163 162 166 183 271 283 164 315 328 332 333 306 304 296 300 303 282 261 237 222 223
44 33 30 16 360 340 287 270 300 330 311 338 273 238 214 186 176 168 171 169 174 172 185 197 191 183 209 266 194 181 234 284 308 307 298 309 327 319 303 297 258 226 219
46 37 32 32 29 4 347 343 304 244 250 250 252 249 241 219 199 185 181 181 185 184 189 201 191 185 177 220 263 218 208 207 249 306 310 306 318 317 309 306 295 238 205
49 41 34 32 29 21 25 20 18 4 325 320 335 330 304 264 233 214 200 192 195 194 196 198 199 205 195 197 207 221 242 237 215 228 289 311 322 308 308 293 273 241 203
54 48 42 37 26 16 22 22 23 11 357 0 357 342 326 314 294 267 235 215 206 201 203 203 203 209 212 214 214 207 210 223 223 217 252 290 304 304 314 307 256 210 191